Weather History for Big Piney, WY

Change the Weather History Date:

Thursday, March 13, 2014

  Actual Average Record
Temperature  
Mean Temperature 30 °F 26 °F  
Max Temperature 46 °F 40 °F 62 °F (2007)
Min Temperature 16 °F 12 °F -10 °F (1980)
Degree Days  
Heating Degree Days 34 39  
Month to date heating degree days 543  
Since 1 July heating degree days 8066  
Cooling Degree Days 0 0  
Month to date cooling degree days 0  
Year to date cooling degree days 0  
Moisture  
Dew Point 15 °F    
Average Humidity 61    
Maximum Humidity 81    
Minimum Humidity 26    
Precipitation  
Precipitation 0.00 in 0.01 in 0.02 in (2002)
Month to date precipitation 0.14  
Year to date precipitation 0.80  
Sea Level Pressure  
Sea Level Pressure 30.09 in    
Wind  
Wind Speed 6 mph (NNE)    
Max Wind Speed 20 mph    
Max Gust Speed 22 mph    
Visibility 10 miles    
Events      
T = Trace of Precipitation, MM = Missing Value Source: NWS Daily Summary

Daily Weather History Graph

Daily Weather History Graph

Search for Another Location

Airport:

Trip Planner

Search our weather history database for the weather conditions in past years. The results will help you decide how hot, cold, wet, or windy it might be!

Date:

Astronomy

Mar. 13, 2014 Rise Set
Actual Time 7:35 AM MDT 7:24 PM MDT
Civil Twilight 7:07 AM MDT 7:52 PM MDT
Nautical Twilight 6:35 AM MDT 8:25 PM MDT
Astronomical Twilight 6:01 AM MDT 8:58 PM MDT
Moon 4:51 PM MDT (3/13) 5:47 AM MDT (3/13)
Length of Visible Light 12h 45m
Length of Day
11h 48m
Waxing Gibbous, 92% of the Moon is Illuminated
Mar 13
Waxing Gibbous
Mar 16
Full
Mar 23
Last Quarter
Mar 30
New
Apr 7
First Quarter

Hourly Weather History & Observations

Time (MDT) Temp. Windchill Dew Point Humidity Pressure Visibility Wind Dir Wind Speed Gust Speed Precip Events Conditions
12:53 AM 21.0 °F 13.4 °F 15.1 °F 78% 30.20 in 10.0 mi East 5.8 mph - N/A   Clear
1:53 AM 21.0 °F - 14.0 °F 74% 30.17 in 10.0 mi Calm Calm - N/A   Clear
2:53 AM 19.9 °F 12.1 °F 14.0 °F 78% 30.15 in 10.0 mi NW 5.8 mph - N/A   Clear
3:53 AM 21.0 °F 16.2 °F 14.0 °F 74% 30.12 in 10.0 mi East 3.5 mph - N/A   Clear
4:53 AM 18.0 °F 11.1 °F 12.9 °F 81% 30.13 in 10.0 mi East 4.6 mph - N/A   Clear
5:53 AM 17.1 °F 8.7 °F 12.0 °F 81% 30.13 in 10.0 mi NNW 5.8 mph - N/A   Clear
6:53 AM 16.0 °F 7.4 °F 10.9 °F 81% 30.14 in 10.0 mi North 5.8 mph - N/A   Clear
7:53 AM 17.1 °F - 12.0 °F 81% 30.16 in 10.0 mi Calm Calm - N/A   Clear
8:53 AM 19.0 °F 12.3 °F 14.0 °F 81% 30.16 in 10.0 mi SE 4.6 mph - N/A   Clear
9:53 AM 24.1 °F 14.4 °F 15.1 °F 69% 30.14 in 10.0 mi ENE 9.2 mph - N/A   Clear
10:53 AM 28.0 °F 21.7 °F 16.0 °F 61% 30.11 in 10.0 mi ENE 5.8 mph - N/A   Clear
11:53 AM 32.0 °F 24.2 °F 16.0 °F 52% 30.08 in 10.0 mi ENE 9.2 mph - N/A   Clear
12:53 PM 36.0 °F 32.1 °F 16.0 °F 44% 30.04 in 10.0 mi Variable 4.6 mph - N/A   Clear
1:53 PM 39.9 °F 33.9 °F 16.0 °F 38% 30.01 in 10.0 mi NNE 9.2 mph - N/A   Clear
2:53 PM 43.0 °F 38.2 °F 14.0 °F 31% 29.98 in 10.0 mi NE 8.1 mph - N/A   Clear
3:53 PM 42.1 °F 38.4 °F 14.0 °F 32% 29.97 in 10.0 mi NNE 5.8 mph - N/A   Clear
4:53 PM 45.0 °F 38.2 °F 12.0 °F 26% 29.96 in 10.0 mi NNW 15.0 mph 21.9 mph N/A   Clear
5:53 PM 43.0 °F 34.5 °F 14.0 °F 31% 30.00 in 10.0 mi NNW 19.6 mph - N/A   Clear
6:53 PM 37.9 °F 30.9 °F 17.1 °F 43% 30.03 in 10.0 mi NNW 10.4 mph - N/A   Clear
7:53 PM 32.0 °F 27.5 °F 18.0 °F 56% 30.07 in 10.0 mi North 4.6 mph - N/A   Clear
8:53 PM 28.9 °F 21.1 °F 18.0 °F 64% 30.10 in 10.0 mi NNE 8.1 mph - N/A   Clear
9:53 PM 27.0 °F 20.5 °F 18.0 °F 69% 30.10 in 10.0 mi NNW 5.8 mph - N/A   Clear
10:53 PM 23.0 °F 11.1 °F 17.1 °F 78% 30.11 in 10.0 mi NW 12.7 mph - N/A   Clear
11:53 PM 26.1 °F 15.6 °F 15.1 °F 63% 30.08 in 10.0 mi North 11.5 mph - N/A   Clear